CAPE
2018 2284 2539 2138 2146 2314 2494 2347 2477 2242 2200 1957 1759 1740 2030 1989 2448 1963 1539 1833 1801 2010 2181 1509 1298 1157 1180 1210 1714 1960 1313 1371 1240 1032 1553 2110 2496 2680 2770 2691 2601 2425 2374 2358 2362 2294 2384 2432 2174 2162 2082 1878 1910 2058 1910 1902 1899 1913 1888 1859 1855 1781 1683 1688 1537 1670 1619 1702 1565 1275 1486 1455 1331 1424 1262 1417 1341 1207 1413 1333 1371 1411 1395 1459 1470
1858 1860 2578 2332 2146 2201 2271 2110 2335 2208 2171 1923 1956 2057 2196 2256 2428 1915 1668 2081 1865 1408 2034 1539 1556 740 481 878 1512 1742 1346 1396 1256 1055 1395 2097 2392 2669 2774 2635 2623 2535 2399 2294 2317 2387 2429 2325 2272 2235 2241 1987 1872 2024 1974 1792 1812 1864 1832 1775 1843 1777 1730 1706 1543 1665 1815 1831 1768 1531 1359 1468 1214 1197 1318 1435 1406 1480 1312 1269 1593 1666 1654 1588 1568
1754 1804 2125 2251 2057 1821 2016 2000 1819 2123 2249 2017 2546 2086 2246 2310 2068 1881 1986 1646 1766 2218 2255 2054 1495 1078 922 634 1195 1476 1329 1421 1304 1030 1319 1971 2245 2492 2612 2714 2572 2533 2490 2390 2316 2291 2345 2326 2249 2323 2238 2166 2018 1998 2066 1999 1879 1831 1784 1794 1780 1684 1699 1673 1640 1648 1759 1731 1739 1841 1667 1557 1477 1580 1696 1596 1645 1534 1578 1719 1794 1864 1846 1809 1883
1654 1727 1793 1932 1292 1667 1932 1819 1636 1636 2272 2039 2482 2408 2370 2599 2837 2400 2325 2210 1936 1751 2223 2208 1579 1211 663 392 848 1106 1337 1507 1405 1153 1240 1679 2153 2308 2423 2533 2545 2580 2536 2410 2287 2082 2065 2091 2120 2154 2005 2132 2108 2021 2145 2191 2037 1964 1932 1842 1680 1718 1690 1694 1637 1683 1702 1692 1845 1838 1697 1669 1548 1653 1721 1764 1707 1717 1796 1844 1817 1958 2037 1984 2040
1428 1599 2178 1408 1388 1658 1793 2008 1566 1742 2091 2073 2245 2739 2945 2828 2636 2834 1745 1385 1215 1411 2300 1778 1088 883 603 60 587 1033 1288 1509 1376 1238 1350 1657 1906 2137 2129 2220 2298 2548 2566 2458 2377 2176 2107 2109 2167 2157 2128 2074 2174 2055 2151 2198 2004 2026 2031 1995 1797 1847 1830 1737 1703 1791 1767 1695 1734 1862 1800 1724 1705 1530 1812 1894 1870 1827 1847 1929 1936 2034 2030 1986 2007
1510 1578 1785 1494 1652 1620 1578 1944 1595 1786 1835 2246 1887 2298 2400 2499 2470 2264 3354 2444 1269 1706 2013 1458 1286 843 534 120 91 1019 1251 1344 1371 1318 1584 1790 1975 2021 2014 2153 2181 2334 2460 2450 2422 2246 2155 2140 2072 2060 2089 2082 2056 2055 2066 2074 2044 2098 2038 2101 2017 2009 1980 1767 2017 1918 1751 1873 1832 1734 1784 1813 1841 1944 1688 1999 1965 2019 1937 1997 2021 1962 1856 1987 2026
1858 1920 1992 1956 2041 1697 1735 1963 1802 1915 1948 2382 1678 1958 1982 2420 2099 1600 2101 1668 1473 2296 1776 1539 1068 1023 865 194 10 916 1107 1131 1213 1457 1657 1818 2074 2138 2127 2140 2084 2212 2217 2296 2330 2470 2334 2098 2174 2141 2144 2115 2071 2119 2100 2076 2095 2088 2175 2161 2108 1994 2006 1962 1879 1853 1905 1886 1863 1646 1584 1613 1637 1581 1466 1519 1795 1841 1790 1832 1789 1775 1875 1964 1864
2129 2017 2071 2108 2186 1873 2009 2090 2240 2251 2328 2800 2092 1844 2214 2189 2554 1966 1877 2124 2578 1568 1323 1303 1140 1199 1152 79 84 708 896 976 1142 1431 1534 1820 2029 2095 2139 2141 2079 2122 2547 2064 2083 2353 2299 2162 2148 2183 2167 2137 2099 2219 2197 2149 2098 2077 1901 2062 2120 2172 1950 1969 1850 1856 1839 1655 1756 1717 1621 1549 1537 1510 1470 1468 1512 1672 1677 1606 1630 1625 1726 1723 1775
2138 2052 2040 2099 2155 1824 2136 2412 2551 2287 2759 3043 2301 1956 2191 2071 2849 2786 2052 2001 1578 1354 1386 1280 1002 1192 675 43 54 289 840 862 1017 1185 1444 1616 1792 1894 2024 2099 2139 2653 2527 2002 1996 2056 2298 2366 2202 2282 2274 2215 2184 2226 2239 2248 2174 2098 2015 2006 2145 2118 2034 1892 1871 1741 1646 1755 1656 1662 1666 1610 1520 1579 1501 1626 1668 1507 1306 1402 1382 1370 1449 1474 1266
2430 1800 2012 1936 1960 2127 2294 2528 2627 2241 2707 2978 2426 2336 1896 1773 1983 2528 2169 1538 1419 1113 1207 1140 1108 1084 397 60 58 307 767 790 829 1679 1246 1377 1519 1739 1772 1810 2131 2278 2407 1975 1952 1952 1995 2282 2299 2294 2274 2222 2238 2159 2181 2094 2112 2088 1864 1760 1863 2072 1854 1895 1926 1731 1874 1707 1746 1649 1580 1502 1417 1403 1365 1404 1414 1316 1312 1316 1286 1364 1201 1184 1240
2565 2119 1846 2457 1697 2367 2603 2901 2542 2228 2567 2846 2504 2048 1961 2165 1802 2195 2674 1869 1505 1306 1076 1052 1103 762 308 69 19 210 734 636 1102 1008 1082 1208 1438 1636 1522 1564 1827 2208 2208 1783 1828 1865 1868 1958 2022 2069 2110 2288 2208 2316 2118 1980 1936 2022 2085 2018 2001 2020 1944 1575 1635 1771 1795 1761 1639 1611 1586 1547 1503 1364 1238 1141 1219 1349 1266 1270 1272 1303 1315 1294 1375
2526 2255 1970 2520 1944 2648 2754 2998 2533 2429 2924 2672 2620 2141 1597 2171 2128 2315 2755 3187 3221 2089 1425 1894 566 850 1934 43 2 7 545 750 788 837 915 1202 1391 1536 1319 1445 1791 2139 1709 1585 1698 1751 1755 1833 2188 1909 1932 2100 2194 2280 2076 1926 1926 1880 1902 1946 2011 1908 1780 1724 1669 1683 1538 1494 1501 1477 1488 1420 1362 1268 1184 1245 1332 1290 1271 1349 1420 1526 1525 1479 1513
2565 2289 1980 2837 2177 2637 2698 2952 2837 2559 2919 2906 2704 2273 2253 2099 2495 2800 2455 2368 2257 2152 2409 980 1 74 0 0 0 149 760 582 678 720 817 902 1195 1326 1254 1529 1749 1682 1509 1509 1593 1635 1566 1702 1910 1888 1852 1896 2053 2212 2174 1978 2053 1964 1996 2039 1882 1908 1858 1724 1510 1591 1581 1477 1440 1405 1438 1332 1257 1313 1148 970 1013 1096 1084 1196 1195 1301 1394 1426 1397
2472 2416 1979 2383 2208 2535 2629 2746 2951 2558 2631 2841 2670 2728 2802 2894 2701 2734 2953 2358 2086 2032 1952 283 136 9 11 1 0 0 842 296 502 494 603 691 1026 1072 1179 1475 1540 1313 1297 1371 1451 1328 1367 1605 1754 1845 1787 1806 1822 1952 2022 1976 1960 2067 1881 1834 1773 1692 1735 1816 1685 1548 1316 1326 1247 1187 1179 1140 1129 960 554 657 1024 1034 1019 819 887 1042 1198 1284 1206
2327 2536 2139 2005 2202 2140 2355 2343 2766 2674 2637 2950 2632 2419 2074 2473 2500 2233 2435 2332 2260 2322 2052 1257 67 243 53 0 0 0 113 0 63 186 0 500 780 797 1069 1259 1303 1119 1167 1265 1157 1026 1251 1366 1497 1648 1637 1736 1741 1870 1856 2169 1919 1944 1866 1929 1742 1569 1350 1610 1557 1511 1425 1328 1233 884 941 1026 842 796 759 919 783 835 683 617 958 1060 1130 1008 803
2264 2420 2296 1922 2052 2182 2009 2287 2691 2696 2401 2814 2765 2557 2216 2205 2691 2280 2278 2218 2121 2179 2402 1700 356 17 16 0 0 0 0 0 0 0 0 0 463 158 916 1069 1104 1046 1086 1148 978 954 1104 1172 1283 1388 1546 1702 1614 1755 1753 1692 1973 1895 1806 1797 1801 1745 1521 1498 1572 1539 1611 1314 1111 957 779 670 679 767 618 592 1000 967 834 1063 1086 884 427 285 176
2260 2302 2272 1978 1988 2262 2267 2436 2780 2941 2550 2416 2705 2594 2353 2200 2468 2512 2476 2105 2102 2050 2084 1760 560 1 25 9 0 0 0 0 0 0 0 0 0 12 602 803 928 910 966 1041 1008 1022 1074 1126 1214 1232 1442 1507 1479 1677 1615 1662 1868 2111 1516 1636 1644 1434 1548 1546 1545 1496 1282 1044 1126 712 739 518 616 719 688 672 648 638 655 664 187 192 203 103 147
2263 2226 2210 2066 2032 2031 2648 2592 2827 3084 2845 2565 2602 2800 2819 2732 2553 2482 2427 2238 1981 1623 1563 2110 857 870 54 0 0 0 0 0 0 0 0 0 0 0 20 396 649 718 805 896 882 982 1065 1072 1186 1240 1273 1171 1280 1484 1414 1457 1564 1554 1374 1458 1494 1339 1496 1531 1377 1203 1111 520 717 568 754 694 765 712 356 257 185 258 153 187 33 72 98 100 80
2310 2181 2168 2134 2029 1971 2683 2694 2772 2969 3100 2718 2744 2944 3112 3159 3042 2798 2530 2184 1872 1560 1303 1173 1132 708 1154 444 402 540 0 0 0 0 0 0 0 0 0 0 214 364 261 39 381 818 919 1017 1186 1295 1207 1090 1202 1297 1368 1473 1568 1391 1605 1656 1402 1357 1522 1435 1317 768 551 493 627 730 845 802 520 199 194 121 104 43 89 0 16 9 11 18 43
2185 2193 2172 2155 2118 2072 2393 2840 2847 2894 3138 3035 2898 2881 3079 3259 3119 2920 2722 2260 1786 1544 1261 1087 954 194 158 6 554 949 16 1 0 0 0 0 0 0 0 0 0 0 0 19 110 613 686 880 1022 1216 1216 1136 1093 1198 1321 1169 1084 1037 1460 1486 1380 1320 1365 1265 1028 521 332 435 583 653 450 228 70 6 78 210 34 73 11 17 46 37 68 30 168
2085 2064 2049 2067 2260 2237 2321 2797 2932 2933 3190 3019 2958 2969 3111 3059 2988 2896 2774 2275 1890 1461 1084 942 384 5 29 11 2 0 11 148 247 2 0 0 0 0 0 0 0 0 0 6 57 81 136 484 732 876 1092 1030 970 971 598 4 24 539 1240 1562 1410 1358 1245 988 518 258 271 302 262 138 31 5 8 4 2 30 106 24 55 74 84 160 239 328 324
2049 2016 1976 1954 2111 2278 2450 2619 2992 3013 3139 3011 2942 3033 3081 3091 3030 2664 2559 2367 2154 1721 1128 1016 0 0 0 0 0 0 0 0 0 0 0 0 0 0 0 0 0 0 0 0 9 18 37 32 245 349 764 848 793 642 0 0 0 12 747 1652 1429 1212 834 698 404 186 289 224 217 262 297 231 146 137 179 247 376 274 216 316 371 404 434 428 456
2044 2039 1993 1973 2016 2233 2535 2573 2826 3067 3160 3016 2915 2954 3014 3069 3047 2731 2351 2405 2144 1776 2001 1399 900 189 0 0 0 0 0 0 0 0 0 0 0 0 0 0 0 0 0 0 0 0 11 7 48 72 57 208 163 0 0 0 38 13 538 1634 1447 1191 815 580 567 233 419 436 347 407 554 510 413 407 475 425 378 290 290 276 267 273 278 301 313
1934 1994 2030 1982 1974 2147 2526 2698 2844 3065 3139 3049 2928 2879 2914 3086 3063 2943 2527 2298 1911 1688 1695 1410 992 360 0 0 0 0 0 0 0 0 0 0 0 0 0 0 0 0 0 0 0 0 0 0 9 10 0 18 10 0 0 0 1 68 605 1529 1370 1250 979 882 696 639 529 488 491 435 354 284 202 222 201 177 188 193 240 347 448 437 454 452 375
1936 1871 1977 2054 2002 2090 2407 2639 2832 3018 3178 3131 3010 2929 2972 3068 2933 2675 2540 2386 2169 1864 1632 1405 887 187 10 0 0 10 45 0 0 61 0 0 0 0 0 0 0 0 0 0 0 0 0 0 0 0 0 0 0 0 0 0 0 63 377 1019 1086 1096 955 852 612 514 666 673 535 554 550 560 454 352 309 268 326 509 569 548 521 377 229 210 246
1961 1892 1836 1992 2055 2072 2422 2601 2734 2919 3156 3244 3162 2954 2952 3022 2962 2603 2457 2422 2277 1934 1758 1592 900 510 0 0 0 0 1 46 4 0 175 58 5 0 46 14 0 0 0 0 0 0 0 0 0 0 0 0 0 0 0 0 0 4 313 0 298 457 529 608 573 420 364 515 499 426 359 358 576 609 490 306 454 544 502 484 399 401 419 520 755
1933 1973 1882 1898 2020 2078 2420 2638 2728 2885 3016 3126 3110 2956 2838 2927 2951 2804 2645 2530 2378 2008 1790 1617 1174 536 466 0 0 0 0 1 3 2 32 25 0 0 0 8 8 0 2 6 0 0 0 0 0 0 0 0 0 0 0 0 0 0 452 70 0 28 72 84 191 170 75 32 81 142 124 114 171 308 348 409 462 503 460 503 637 680 916 1027 969
1923 2007 1988 1937 1960 1985 2302 2575 2684 2857 2987 3054 3081 3037 2909 2873 2844 2794 2686 2568 2477 2143 1708 1514 1312 661 147 9 0 0 0 0 0 0 11 0 0 0 0 0 0 1 0 8 0 0 0 0 0 0 0 0 0 0 11 2 0 140 616 129 0 0 2 0 0 0 0 0 0 0 0 11 111 195 327 414 388 521 688 810 952 939 953 951 964
1923 2014 2034 1946 1980 1963 2134 2450 2584 2804 2979 3064 3085 3065 3023 2918 2715 2755 2729 2650 2511 2319 2052 1822 1439 1033 531 32 3 0 0 0 1 0 0 0 0 0 0 0 0 0 0 0 0 0 0 0 0 0 0 0 0 0 27 30 84 340 351 308 0 0 0 0 0 0 0 0 0 0 0 0 14 140 403 567 745 871 929 851 959 921 946 922 862
1963 2028 2028 1952 1926 2345 2099 2334 2506 2723 2938 3069 3150 3163 3105 2942 2745 2612 2690 2677 2544 2320 2156 2027 1611 1189 650 634 356 8 1 10 173 187 0 0 0 0 0 0 0 0 0 0 0 0 0 0 0 0 0 0 4 14 37 70 297 674 366 596 0 0 0 0 0 0 0 0 0 0 0 0 10 104 283 505 739 833 887 882 954 952 930 887 830
2087 2145 2100 2008 1892 2018 2214 2308 2440 2595 2830 2947 3100 3193 3168 2995 2756 2647 2518 2508 2414 2292 2189 2085 1837 1436 1005 706 657 576 47 34 62 115 452 22 20 3 0 0 0 0 0 0 2 0 1 14 1 0 0 0 25 46 139 127 221 651 454 553 42 0 0 0 0 0 0 0 0 0 0 0 0 21 128 261 399 493 595 695 856 869 860 856 816
2103 2265 2231 2148 2007 1900 2197 2388 2464 2513 2684 2851 2922 3057 3066 2916 2783 2724 2537 2319 2343 2257 2221 2169 1981 1679 1418 1087 765 699 619 75 127 170 250 155 43 266 24 9 1 1 0 0 0 6 23 7 7 1 0 4 50 72 78 180 241 662 558 479 166 163 102 0 0 0 0 0 0 0 0 0 0 0 33 155 245 292 408 524 695 802 718 622 579
2184 2263 2358 2269 2177 2020 2033 2371 2513 2547 2577 2745 2840 2884 2906 2849 2774 2778 2646 2408 2384 2289 2252 2262 2099 1841 1649 1410 943 860 694 417 90 116 205 516 567 592 422 215 34 25 27 38 83 95 94 348 554 275 11 38 124 82 104 131 210 440 794 501 248 124 146 282 264 75 10 0 0 0 0 0 0 0 2 51 117 189 374 382 504 460 342 286 387
2209 2307 2280 2371 2342 2253 2151 2194 2466 2574 2593 2628 2782 2830 2805 2764 2737 2714 2652 2498 2459 2373 2307 2317 2231 2064 1824 1593 1100 1022 1015 714 427 369 425 475 588 598 499 476 426 345 44 128 98 184 176 377 633 730 663 163 154 35 136 102 206 493 732 538 184 62 20 239 284 256 224 74 2 0 0 0 0 0 0 4 44 90 139 208 278 158 136 184 186
2120 2360 2364 2254 2280 2350 2328 2292 2318 2488 2599 2605 2662 2811 2814 2774 2727 2660 2601 2576 2520 2453 2396 2342 2288 2182 2006 1771 1393 1068 1052 1038 821 525 398 454 578 601 573 489 481 452 418 252 114 121 262 306 260 637 688 560 278 63 21 35 228 497 541 335 208 264 242 188 350 399 257 178 249 209 0 0 0 0 0 0 0 6 26 90 98 62 46 58 44
2269 2316 2461 2451 2322 2238 2232 2290 2326 2392 2507 2578 2579 2693 2793 2785 2764 2704 2668 2644 2581 2488 2414 2327 2267 2228 2097 1895 1628 1339 1121 1145 1140 958 619 512 605 610 652 691 565 576 561 503 471 449 486 503 107 467 622 644 488 7 96 171 111 482 526 324 168 326 485 493 380 432 384 361 48 2 0 0 0 0 0 0 0 0 0 0 0 0 0 0 0
2475 2437 2439 2556 2532 2410 2272 2202 2279 2391 2469 2545 2578 2606 2745 2794 2785 2755 2713 2697 2692 2608 2482 2402 2299 2163 2045 1875 1678 1492 1332 1153 1177 1136 996 692 646 677 641 654 758 738 659 630 635 607 549 500 294 112 421 648 604 372 150 347 321 318 508 509 384 393 432 556 542 432 443 456 382 9 0 0 116 87 0 0 0 0 0 0 0 0 0 0 0
2203 2550 2518 2475 2591 2626 2524 2411 2308 2324 2447 2570 2613 2625 2718 2837 2838 2808 2769 2720 2721 2741 2660 2494 2402 2232 2011 1836 1735 1591 1468 1353 1182 1104 1025 900 669 594 717 687 678 736 751 704 664 659 632 539 479 182 49 566 691 670 539 347 459 490 550 561 480 457 491 443 489 473 425 482 441 306 15 387 381 304 260 18 0 0 0 0 0 0 0 0 0
1684 2190 2589 2554 2444 2557 2718 2717 2633 2512 2383 2514 2654 2679 2703 2808 2891 2878 2839 2786 2718 2706 2745 2707 2550 2398 2194 1965 1778 1646 1548 1443 1336 1195 1052 942 793 646 533 545 663 654 684 769 756 708 672 591 549 522 481 299 386 644 623 593 525 485 541 577 600 554 499 435 482 469 431 470 457 389 288 406 400 342 0 0 0 0 0 0 0 0 0 0 0
1604 1729 2156 2544 2555 2419 2435 2601 2689 2628 2509 2398 2558 2698 2702 2730 2844 2904 2893 2832 2755 2668 2647 2684 2664 2564 2413 2202 1937 1716 1591 1505 1411 1338 1237 1106 921 795 704 611 572 586 638 693 740 765 738 675 595 575 559 557 517 547 619 641 618 571 515 500 518 531 568 535 563 547 433 418 490 394 344 259 346 331 327 304 257 0 0 0 0 0 0 0 0
1681 1717 1817 2161 2486 2535 2402 2330 2455 2533 2484 2402 2352 2560 2692 2710 2729 2820 2860 2834 2764 2680 2600 2558 2566 2557 2488 2362 2197 1944 1700 1566 1492 1408 1335 1256 1102 923 856 788 747 682 636 642 679 710 754 740 719 617 570 574 589 580 630 659 642 610 546 521 516 505 532 565 586 586 556 430 415 418 412 383 348 308 0 0 0 0 0 0 0 0 0 0 0
1787 1775 1814 1939 2221 2456 2503 2435 2356 2432 2522 2470 2385 2362 2528 2638 2674 2698 2739 2764 2758 2679 2573 2474 2454 2473 2464 2377 2264 2144 1974 1781 1652 1567 1478 1382 1284 1106 902 850 827 802 769 710 679 689 716 747 746 703 622 563 540 574 584 626 603 585 580 593 600 589 560 531 452 536 548 506 460 457 401 259 305 279 105 102 0 37 0 0 0 0 0 0 0
1950 1884 1896 1950 2094 2288 2437 2476 2418 2344 2416 2596 2598 2488 2458 2543 2583 2604 2635 2679 2703 2680 2601 2482 2366 2352 2397 2397 2318 2200 2128 2035 1922 1788 1650 1526 1427 1346 1188 962 898 865 840 798 776 758 746 745 758 750 715 630 562 507 519 569 641 697 600 569 614 632 597 512 466 417 438 454 436 427 430 374 339 319 292 292 294 258 0 0 0 0 0 0 0
2044 2064 2024 2032 2106 2255 2398 2475 2473 2408 2346 2379 2623 2743 2673 2597 2571 2556 2578 2614 2651 2653 2622 2546 2439 2319 2276 2319 2355 2312 2209 2131 2056 1998 1890 1773 1660 1548 1418 1273 1105 991 935 834 788 792 788 767 751 755 722 698 634 538 506 505 549 588 672 663 608 588 563 515 472 460 463 434 418 457 474 409 367 342 364 381 389 317 2 0 0 0 0 0 0
1918 2109 2157 2133 2128 2187 2353 2500 2554 2568 2511 2428 2426 2652 2858 2843 2752 2679 2607 2605 2629 2663 2656 2625 2558 2459 2342 2258 2277 2334 2349 2324 2268 2186 2084 1998 1932 1835 1706 1572 1462 1331 1208 1071 922 752 730 708 689 691 686 685 644 591 520 480 467 473 502 563 590 566 528 484 471 437 434 444 424 394 478 428 390 446 451 453 400 90 2 0 0 0 0 0 0
1743 1922 2121 2187 2156 2119 2172 2342 2515 2603 2663 2661 2624 2567 2684 2900 2974 2929 2805 2679 2634 2633 2673 2703 2679 2624 2543 2445 2350 2321 2359 2378 2384 2380 2318 2231 2129 2020 1934 1849 1768 1694 1595 1495 1370 1219 1075 981 861 741 628 569 593 575 541 491 452 426 399 416 443 456 464 460 437 407 406 525 438 387 399 430 399 417 431 334 0 0 0 0 0 0 0 0 0
1747 1781 1986 2104 2148 2140 2109 2138 2290 2472 2578 2690 2795 2797 2745 2756 2928 3028 2974 2851 2766 2698 2672 2719 2771 2756 2725 2667 2594 2520 2448 2420 2448 2448 2417 2360 2283 2193 2104 2034 1956 1864 1754 1693 1648 1562 1434 1331 1220 1046 928 735 561 525 517 536 510 449 370 338 321 361 382 420 442 450 438 441 466 429 404 387 309 290 328 3 0 0 0 0 0 0 0 0 0
1810 1778 1871 2066 2181 2204 2185 2114 2121 2268 2465 2602 2762 2893 2933 2897 2866 2958 2996 2935 2865 2814 2779 2749 2784 2829 2847 2838 2803 2764 2707 2637 2584 2561 2543 2483 2413 2350 2280 2198 2116 2030 1943 1863 1781 1672 1559 1478 1413 1274 1135 975 799 642 525 480 537 544 490 431 356 333 342 376 411 429 456 448 520 474 383 358 359 394 337 68 0 0 0 0 0 0 0 0 0
1840 1817 1828 1990 2234 2372 2416 2389 2301 2272 2400 2592 2751 2866 2987 3036 3010 2977 2966 2949 2912 2889 2870 2850 2828 2836 2899 2944 2950 2934 2897 2877 2838 2780 2717 2681 2650 2583 2498 2424 2330 2236 2148 2060 2007 1925 1848 1812 1785 1677 1540 1382 1230 1120 1023 890 816 704 620 506 479 384 359 360 359 368 403 417 560 511 406 416 404 414 427 241 27 0 0 0 0 0 0 0 0
1983 1864 1832 1878 2082 2348 2519 2593 2582 2522 2450 2530 2784 2956 3016 3107 3143 3107 3042 2966 2920 2882 2884 2898 2893 2873 2861 2893 2968 3019 3024 3017 3005 2972 2937 2873 2852 2806 2728 2645 2565 2471 2397 2325 2275 2199 2135 2084 2061 2036 1983 1878 1735 1617 1510 1401 1289 1113 951 778 584 390 385 394 388 398 413 447 533 539 438 446 399 434 458 318 161 7 0 0 0 0 0 0 0
2168 2012 1904 1908 1969 2123 2364 2599 2753 2787 2752 2696 2688 2922 3138 3223 3258 3244 3187 3104 3034 3005 2989 3002 2992 2995 2991 2945 2986 3006 3008 3003 3004 2979 2974 2930 2908 2830 2834 2738 2694 2617 2526 2467 2446 2388 2318 2237 2196 2164 2138 2068 1989 1886 1781 1636 1522 1371 1253 1109 970 746 498 403 411 420 417 504 546 547 486 478 445 436 474 416 203 88 0 0 0 0 0 0 0
Wind_Speed
14 13 11 14 13 12 13 13 12 13 13 14 13 14 15 15 14 14 15 16 15 14 13 14 16 17 18 16 16 16 15 14 14 14 15 16 16 19 21 21 20 19 19 18 17 17 17 17 16 15 14 14 14 14 14 14 13 13 13 14 14 14 14 14 14 13 12 12 12 12 13 14 14 14 14 15 15 15 14 15 14 11 9 6 4
14 13 12 13 11 12 12 11 11 12 12 12 12 10 12 14 13 12 14 15 15 14 11 11 12 15 15 15 15 16 15 12 12 14 15 15 16 18 21 20 20 19 19 18 17 17 17 17 17 16 15 16 16 16 16 16 15 15 14 14 14 14 14 14 15 14 13 13 13 13 13 14 14 14 15 15 16 16 16 14 13 13 12 10 7
13 12 12 11 10 11 11 9 10 11 11 11 9 9 10 10 10 11 12 12 13 13 10 10 9 8 10 14 14 13 12 11 12 12 13 15 15 16 17 20 20 19 18 18 18 18 17 17 17 17 16 16 16 17 17 17 17 16 16 16 15 15 15 15 15 14 14 13 13 13 13 13 15 15 15 15 15 16 15 15 15 14 14 13 11
12 11 10 10 10 10 9 9 10 10 9 9 8 7 7 7 8 8 9 8 10 10 10 10 9 6 8 10 11 12 11 11 12 13 13 14 15 15 15 16 20 20 18 18 17 17 17 17 16 16 17 16 17 18 17 17 18 17 17 17 17 16 15 15 15 15 14 14 14 14 14 14 15 15 15 15 15 15 15 15 15 14 13 13 12
11 11 10 10 8 8 9 10 10 9 8 7 6 5 3 3 5 6 6 6 6 8 8 8 8 8 5 nan 11 11 11 11 11 12 14 14 15 15 15 15 16 20 20 19 18 17 17 16 16 15 16 16 17 18 17 17 18 18 17 16 16 15 15 15 14 14 14 14 14 14 14 14 14 14 14 14 14 14 13 12 12 12 12 11 11
9 9 8 8 7 8 10 10 10 9 8 6 5 4 2 2 4 4 6 4 4 6 5 7 10 8 2 9 nan 12 11 12 11 12 13 14 15 15 16 16 16 14 15 19 18 18 17 16 16 15 15 16 17 17 17 17 17 16 14 13 14 14 14 14 14 14 14 14 14 14 15 15 14 14 14 14 13 13 12 11 10 10 11 11 11
8 7 8 8 8 9 10 11 10 9 8 7 5 5 2 2 3 3 4 4 4 5 5 7 10 10 3 6 nan 11 10 11 11 12 13 13 12 15 15 15 15 15 15 13 17 17 16 16 16 15 15 15 17 17 17 17 17 15 13 11 11 13 13 13 14 14 14 15 15 15 16 15 15 14 13 11 13 13 12 12 11 11 10 11 11
7 7 7 8 9 9 11 11 10 9 9 7 6 7 5 4 5 3 4 6 7 8 6 8 11 10 6 nan nan 11 11 11 12 12 12 11 14 15 14 14 14 15 15 14 14 15 17 17 17 16 15 16 17 17 18 18 18 16 14 12 11 12 12 12 13 14 14 14 13 13 12 12 12 12 13 14 13 12 12 12 11 11 10 11 12
7 7 6 7 8 9 11 11 11 10 9 9 9 9 9 7 7 7 7 9 10 11 11 10 11 10 7 nan nan 11 10 12 12 12 11 13 13 14 14 14 15 17 15 15 16 16 16 19 18 17 17 17 17 17 18 19 19 18 16 14 13 12 12 12 12 13 13 12 13 10 9 12 13 12 11 11 10 11 11 10 10 11 12 12 12
7 7 6 8 9 10 11 11 11 10 10 10 11 11 11 9 9 10 10 10 12 11 12 12 10 10 5 nan nan 8 10 11 10 10 10 12 13 14 15 14 15 16 15 16 17 17 16 18 19 19 18 18 17 17 18 19 19 19 18 16 15 14 14 13 13 12 11 11 12 11 10 11 13 13 12 12 13 13 13 13 13 13 13 14 13
8 7 7 8 9 10 10 11 10 10 10 10 10 11 11 10 10 11 11 12 12 12 13 10 10 10 8 nan nan 10 10 10 11 10 12 13 12 14 13 15 15 15 16 17 17 17 16 15 14 13 14 18 18 18 18 19 18 18 18 17 17 16 15 15 14 13 13 13 14 13 13 14 15 15 15 15 15 14 14 14 13 13 14 14 14
8 8 7 8 9 10 9 10 10 9 9 10 10 11 11 10 10 9 10 11 11 10 9 9 8 8 9 nan nan nan 12 13 12 13 13 11 12 12 14 12 13 14 15 16 16 16 15 15 14 12 11 13 16 18 18 17 17 17 17 17 17 16 15 15 14 14 13 14 13 14 15 13 13 13 14 13 13 13 13 12 12 12 13 13 12
8 7 7 8 9 9 8 9 8 9 9 10 10 11 10 10 9 8 9 9 11 9 8 8 nan nan nan nan nan 10 15 14 14 14 13 12 11 11 12 11 12 14 15 14 14 14 14 14 13 11 10 9 11 14 16 15 14 14 15 16 15 14 13 12 11 11 11 11 11 12 11 11 11 12 13 13 12 11 11 11 11 11 10 10 10
7 8 8 8 8 9 9 9 8 8 8 8 8 9 7 7 7 7 10 10 11 11 9 7 8 nan nan nan nan nan 11 14 14 13 12 13 11 9 9 9 11 12 12 13 13 13 12 12 11 11 10 9 8 9 10 11 11 12 13 13 13 12 11 10 9 9 9 9 10 12 13 14 14 14 13 13 12 12 12 11 11 9 9 9 9
7 8 8 8 8 9 10 8 8 7 6 7 8 8 7 8 8 9 11 10 10 10 10 9 nan 11 nan nan nan nan 13 nan nan 13 nan 12 9 9 9 9 10 10 12 12 13 12 12 12 11 10 9 8 8 8 7 8 8 10 10 8 8 9 9 9 9 9 10 11 11 12 13 15 16 15 15 15 14 14 12 12 10 9 10 10 10
7 7 7 7 8 9 8 8 8 7 7 7 8 8 7 8 8 9 9 10 11 11 11 12 10 nan nan nan nan nan nan nan nan nan nan nan 12 12 10 10 10 9 9 12 13 12 12 12 12 11 10 9 9 8 8 6 8 11 11 8 4 4 7 9 9 10 11 13 13 14 14 15 16 15 16 15 14 14 13 11 11 11 11 11 11
7 8 7 8 7 7 7 8 8 8 7 7 7 9 8 8 9 8 11 12 13 12 12 13 13 nan nan nan nan nan nan nan nan nan nan nan nan nan 12 11 11 11 11 12 10 11 11 11 11 11 11 11 10 9 8 7 8 8 9 10 9 7 9 10 11 12 13 14 15 16 16 17 17 16 15 14 13 13 14 13 12 13 13 12 12
7 8 8 8 8 7 6 6 7 7 8 8 7 7 8 8 9 9 12 13 13 12 13 12 14 14 nan nan nan nan nan nan nan nan nan nan nan nan nan 14 12 12 12 11 12 13 12 12 11 13 13 12 12 10 10 10 9 9 9 9 13 12 11 12 13 14 15 16 17 17 17 18 17 16 14 14 15 15 16 16 nan nan nan 15 nan
7 7 8 8 8 7 7 7 7 8 8 7 7 8 8 9 8 8 12 13 11 12 13 14 10 13 13 14 12 12 nan nan nan nan nan nan nan nan nan nan 13 14 14 nan 14 14 13 12 13 14 14 13 13 12 11 12 13 13 14 13 14 15 13 14 15 16 18 18 19 19 20 19 18 16 15 16 16 nan nan nan nan nan nan nan nan
6 7 7 7 8 9 8 8 9 9 8 9 10 9 8 8 9 10 11 12 13 13 13 12 12 13 11 nan 12 10 nan nan nan nan nan nan nan nan nan nan nan nan nan nan 15 15 14 13 14 14 14 13 13 13 13 13 12 12 14 16 16 17 17 16 18 20 21 22 22 22 22 22 nan nan nan 17 nan nan nan nan nan nan nan nan 24
6 6 6 7 8 9 9 9 10 10 10 10 9 8 9 10 9 9 10 11 12 12 10 13 12 nan nan nan nan nan nan 10 8 nan nan nan nan nan nan nan nan nan nan nan nan nan 14 15 15 15 14 14 14 13 13 nan nan 13 14 19 19 20 20 20 20 23 23 23 24 24 nan nan nan nan nan nan 20 nan nan nan nan 27 28 28 28
5 5 6 7 8 9 9 11 12 12 11 11 10 10 10 10 11 11 11 11 11 12 12 11 nan nan nan nan nan nan nan nan nan nan nan nan nan nan nan nan nan nan nan nan nan nan nan nan 15 14 15 14 14 14 nan nan nan nan 17 24 23 23 23 23 23 26 25 25 25 26 25 22 19 18 19 20 21 23 25 26 28 30 30 31 30
3 5 7 7 8 9 10 12 12 12 12 12 12 12 11 11 11 11 12 12 11 11 10 10 11 11 nan nan nan nan nan nan nan nan nan nan nan nan nan nan nan nan nan nan nan nan nan nan nan nan nan 16 15 nan nan nan nan nan 23 26 25 26 26 25 25 28 26 25 27 26 25 23 20 19 19 21 23 24 25 27 28 30 31 31 31
4 5 6 8 8 10 10 11 12 12 14 13 13 12 11 10 10 11 12 12 11 11 10 10 10 10 nan nan nan nan nan nan nan nan nan nan nan nan nan nan nan nan nan nan nan nan nan nan nan nan nan nan nan nan nan nan nan nan 23 27 28 28 28 28 29 28 28 28 27 27 26 24 22 20 20 22 23 25 26 27 28 28 29 30 30
5 6 7 8 8 9 10 11 11 12 12 13 13 13 11 10 10 10 11 11 11 11 11 10 10 10 nan nan nan nan nan nan nan nan nan nan nan nan nan nan nan nan nan nan nan nan nan nan nan nan nan nan nan nan nan nan nan nan 26 23 30 29 29 30 30 30 29 30 29 28 26 24 22 20 20 20 22 23 25 26 28 28 30 31 32
6 7 7 7 7 9 9 9 9 9 10 12 13 13 12 12 12 12 12 11 10 11 11 10 9 10 nan nan nan nan nan nan nan nan 12 nan nan nan nan nan nan nan nan nan nan nan nan nan nan nan nan nan nan nan nan nan nan nan 28 nan 27 30 31 31 31 31 31 31 31 30 29 27 25 24 23 24 24 26 28 29 29 30 31 31 32
4 5 5 6 7 6 7 8 8 9 9 10 11 12 12 12 12 13 12 12 12 12 11 11 11 10 9 nan nan nan nan nan nan nan nan nan nan nan nan nan nan nan nan nan nan nan nan nan nan nan nan nan nan nan nan nan nan nan 29 nan nan nan nan nan 32 32 nan nan nan 32 31 30 28 27 26 26 27 28 29 30 31 31 32 32 33
1 3 4 6 6 7 7 8 8 8 9 9 10 10 11 12 12 12 13 12 14 15 14 14 13 12 11 nan nan nan nan nan nan nan nan nan nan nan nan nan nan nan nan nan nan nan nan nan nan nan nan nan nan nan nan nan nan 27 30 25 nan nan nan nan nan nan nan nan nan nan nan nan 29 28 28 28 28 29 30 31 32 32 33 33 34
2 2 4 4 5 7 8 8 9 9 9 9 10 10 11 11 12 12 13 13 14 16 15 16 15 15 13 nan nan nan nan nan nan nan nan nan nan nan nan nan nan nan nan nan nan nan nan nan nan nan nan nan nan nan nan nan nan 25 24 25 nan nan nan nan nan nan nan nan nan nan nan nan nan 30 30 30 30 30 31 32 33 33 34 35 35
2 3 4 6 6 7 8 9 9 9 10 10 11 11 12 12 12 12 12 13 14 13 15 16 16 15 15 14 13 nan nan nan 12 12 nan nan nan nan nan nan nan nan nan nan nan nan nan nan nan nan nan nan nan nan nan nan 24 27 24 25 nan nan nan nan nan nan nan nan nan nan nan nan nan 32 32 32 32 32 33 34 34 35 36 36 36
2 3 4 5 6 7 8 8 9 10 10 11 12 12 13 13 13 12 12 13 14 14 14 15 15 15 16 17 16 15 nan nan nan 13 13 nan nan nan nan nan nan nan nan nan nan nan nan nan nan nan nan nan nan nan 17 18 21 25 24 24 nan nan nan nan nan nan nan nan nan nan nan nan nan nan 33 33 33 34 35 37 39 39 39 38 38
2 3 4 6 7 8 8 9 10 10 11 11 13 13 14 14 15 14 14 14 14 15 14 14 14 15 16 17 18 18 17 nan 16 15 15 15 nan 17 nan nan nan nan nan nan nan nan nan nan nan nan nan nan nan nan nan 17 18 25 22 23 25 28 27 nan nan nan nan nan nan nan nan nan nan nan nan 33 34 36 39 42 45 44 42 40 39
1 3 5 6 7 8 9 10 11 12 12 12 13 14 15 14 15 16 16 16 15 14 14 15 15 16 17 17 18 18 18 18 nan 18 17 16 17 18 18 20 nan nan nan nan nan nan nan 15 16 15 nan nan 14 nan 18 18 18 19 20 21 23 24 26 27 28 nan nan nan nan nan nan nan nan nan nan nan 36 39 42 45 48 48 46 43 40
2 4 6 7 7 9 9 10 12 13 14 14 14 15 15 15 15 15 16 17 16 15 15 15 16 16 17 18 17 17 17 19 19 20 20 19 19 19 19 20 21 21 nan 22 nan 20 19 13 14 14 14 17 18 nan 22 22 21 20 22 22 22 nan nan 27 29 29 35 nan nan nan nan nan nan nan nan nan nan nan 43 45 48 49 49 47 44
2 4 6 7 8 9 10 10 11 12 14 15 15 16 16 16 16 15 16 17 18 17 16 17 17 17 17 17 18 18 16 17 19 19 20 21 20 20 20 19 20 21 21 21 21 21 20 18 18 16 17 18 21 nan nan nan 22 24 25 25 25 25 25 27 29 29 32 35 36 37 nan nan nan nan nan nan nan nan nan nan nan nan nan nan nan
4 4 6 7 7 8 9 10 12 13 14 15 15 16 16 16 15 15 15 16 16 17 18 17 17 17 19 18 18 19 18 18 18 18 19 20 20 20 19 19 19 20 21 21 21 22 21 20 18 21 18 20 18 nan nan 21 23 23 24 24 25 26 28 28 29 29 31 36 nan nan nan nan nan nan nan nan nan nan nan nan nan nan nan nan nan
4 5 5 6 6 7 8 11 13 14 15 15 15 15 14 14 15 14 14 14 15 16 17 17 17 18 18 19 19 19 18 17 16 16 17 19 20 20 20 20 20 19 19 21 21 20 22 23 20 20 20 19 19 20 21 23 22 22 21 24 26 27 28 29 29 30 32 37 39 nan nan nan 40 nan nan nan nan nan nan nan nan nan nan nan nan
3 4 5 5 6 9 11 13 14 14 14 14 15 15 14 13 12 11 12 12 13 13 14 15 16 17 17 18 18 17 17 17 17 17 17 18 18 19 20 21 21 21 20 20 21 21 22 22 23 21 nan 23 20 21 23 24 25 25 23 22 22 24 27 28 30 31 31 32 33 33 nan 36 38 41 42 nan nan nan nan nan nan nan nan nan nan
4 4 4 5 6 9 11 13 13 14 13 13 12 12 12 12 11 10 9 9 10 11 11 13 13 14 15 15 16 16 16 16 16 18 19 19 19 19 19 20 21 22 22 21 22 21 21 21 21 24 24 24 26 25 24 26 26 28 29 27 25 27 28 30 31 31 32 33 35 39 39 40 42 43 nan nan nan nan nan nan nan nan nan nan nan
4 4 4 5 6 8 10 10 11 10 10 10 10 11 11 11 10 10 9 8 8 9 10 11 12 12 13 13 14 15 16 15 16 16 18 19 19 18 19 19 20 22 22 22 22 22 21 21 21 23 26 26 25 26 28 31 28 25 29 32 32 32 32 32 33 35 35 36 36 37 37 39 39 41 42 44 45 nan nan nan nan nan nan nan nan
1 3 4 5 6 8 8 9 8 8 8 9 9 10 11 12 12 12 11 10 9 8 8 9 10 10 10 11 11 12 14 16 19 18 18 19 19 19 20 22 22 23 22 22 23 23 22 22 20 23 25 26 27 30 32 34 36 35 34 34 31 33 35 34 34 36 38 39 39 40 41 43 43 43 nan nan nan nan nan nan nan nan nan nan nan
1 2 3 5 6 7 8 8 7 6 6 6 10 17 16 13 13 12 11 11 12 11 11 10 10 10 11 11 12 18 19 19 20 20 20 21 23 21 22 24 25 25 25 24 25 24 25 24 23 25 26 25 27 31 32 33 34 34 36 37 35 35 37 35 33 37 41 42 42 42 43 45 46 45 47 47 nan nan nan nan nan nan nan nan nan
3 3 3 5 6 6 7 7 7 6 7 7 15 16 18 19 13 11 12 13 13 14 14 14 13 13 13 14 13 16 19 19 20 24 24 25 25 26 27 28 28 28 26 26 25 26 26 25 24 25 26 24 25 30 32 32 36 37 37 38 36 38 40 40 37 37 42 46 43 43 43 46 48 47 47 48 49 50 nan nan nan nan nan nan nan
2 2 3 4 5 5 4 6 6 7 7 11 14 15 17 17 15 11 11 12 13 14 15 15 14 13 14 14 14 14 15 19 20 20 23 26 27 28 29 29 30 32 32 31 28 26 26 25 24 26 26 25 25 30 31 34 35 38 37 38 39 40 40 40 40 41 42 50 47 46 43 47 50 49 48 50 51 51 nan nan nan nan nan nan nan
2 1 2 3 4 4 4 5 6 7 7 11 13 15 15 16 17 15 10 12 13 14 14 14 13 13 12 13 14 15 16 22 22 21 21 22 25 28 29 30 30 31 33 34 34 31 29 28 26 25 27 27 27 28 33 36 39 39 39 38 38 40 41 42 42 42 42 50 50 47 45 48 53 50 49 51 54 nan nan nan nan nan nan nan nan
1 0 1 3 3 3 4 4 4 5 7 9 14 15 16 17 18 16 12 12 12 12 13 13 12 13 14 14 14 15 16 17 19 21 22 22 24 25 25 26 26 27 30 33 33 33 32 32 31 28 27 32 31 30 34 40 43 41 42 40 41 41 42 43 44 44 45 50 51 49 44 47 52 51 49 50 nan nan nan nan nan nan nan nan nan
2 1 1 2 2 2 3 3 3 4 5 10 14 17 17 17 17 14 10 9 8 9 11 11 13 14 15 14 15 15 16 17 18 22 23 24 25 25 27 27 28 27 28 29 29 30 32 33 33 30 28 32 32 31 34 40 41 40 43 43 45 44 41 37 35 39 43 46 49 51 45 47 51 50 48 nan nan nan nan nan nan nan nan nan nan
7 6 5 3 1 1 1 2 3 4 4 11 14 17 19 18 17 10 8 8 8 8 9 10 11 12 13 14 15 15 16 18 20 26 27 26 26 26 26 26 26 27 27 29 32 34 34 34 34 32 30 32 34 33 36 39 38 38 39 39 41 42 38 35 36 40 42 46 50 53 47 46 51 51 47 nan nan nan nan nan nan nan nan nan nan
8 6 4 3 4 3 2 1 3 2 2 7 13 16 17 20 18 13 11 9 8 9 10 11 12 13 14 16 17 17 18 18 21 26 28 30 27 27 27 26 26 26 26 28 32 33 34 35 36 35 33 33 36 37 39 44 43 42 42 41 42 47 43 39 38 42 42 49 49 53 52 48 51 52 49 49 nan nan nan nan nan nan nan nan nan
8 6 8 8 8 7 4 1 0 1 2 5 11 13 16 20 21 17 15 14 12 12 12 13 13 14 17 22 23 22 22 21 24 26 29 32 28 28 28 27 26 26 25 30 32 33 34 35 36 36 35 35 37 38 41 45 46 47 47 43 44 48 45 44 41 43 42 45 46 52 51 47 52 51 51 47 50 nan nan nan nan nan nan nan nan
9 11 12 11 9 8 6 4 2 1 4 7 12 14 16 19 19 15 16 14 13 13 14 14 16 18 20 24 27 27 25 24 26 27 30 33 29 29 30 29 27 25 25 34 33 33 35 38 37 38 36 36 39 41 41 45 47 49 48 45 46 49 47 45 43 43 41 39 44 53 49 46 52 47 51 49 47 nan nan nan nan nan nan nan nan
Wind_Direction
85 81 75 68 69 73 70 67 70 69 76 78 78 80 88 88 85 84 88 88 86 82 68 72 77 70 64 61 61 60 60 62 62 60 63 61 63 54 42 42 42 40 42 41 39 37 38 38 37 35 29 25 26 30 31 31 31 31 30 31 34 38 38 39 42 43 45 44 45 42 39 40 37 33 34 33 35 37 38 37 37 34 33 31 29
80 78 66 66 63 65 68 70 65 69 73 72 77 83 85 92 93 83 88 93 94 87 81 68 50 69 62 54 46 49 54 51 54 56 60 60 61 62 42 44 45 43 41 42 40 40 38 39 39 37 34 29 29 31 32 34 37 38 40 39 42 46 47 47 47 47 50 49 50 52 48 49 48 48 44 42 45 46 48 49 50 53 57 61 67
74 68 66 62 61 59 62 68 66 69 72 72 77 75 73 75 78 77 81 83 87 92 93 89 76 54 65 44 40 43 45 40 38 49 55 55 58 65 57 43 45 44 43 40 40 39 40 38 40 39 38 34 34 34 35 37 38 41 44 45 47 51 53 53 56 53 51 52 52 52 53 53 52 49 51 51 51 51 52 53 56 60 64 68 73
66 66 61 61 60 59 63 63 68 70 72 74 78 76 70 74 86 84 83 84 93 98 93 92 90 57 50 31 41 31 33 37 31 35 43 50 53 58 61 54 43 41 39 36 38 40 42 40 39 39 41 39 40 40 40 42 42 43 45 47 51 51 55 59 57 58 56 51 51 52 51 53 51 50 50 52 53 53 55 56 59 61 64 67 70
66 61 62 61 60 60 65 66 65 66 71 74 77 79 76 84 92 93 95 91 86 94 94 86 80 75 26 nan 30 28 26 34 31 34 36 41 47 50 51 52 51 37 34 31 32 37 40 40 39 38 39 38 40 44 43 47 45 44 46 49 54 57 56 58 59 58 58 54 47 47 48 48 47 48 47 45 47 50 53 55 57 58 62 67 69
63 67 63 62 60 58 59 61 64 67 69 79 77 91 82 101 84 100 85 84 95 93 94 97 92 89 10 32 nan 30 26 35 33 37 36 40 42 47 46 41 39 43 42 31 32 36 38 40 40 39 38 37 39 42 43 45 46 45 49 56 59 61 60 58 56 54 53 50 46 41 42 42 42 44 44 43 40 40 41 43 47 54 60 64 62
73 61 62 56 51 55 56 57 56 66 70 74 75 93 85 76 77 84 106 114 91 79 82 90 88 98 65 27 nan 30 32 37 39 40 41 42 43 48 47 39 35 40 41 43 39 41 43 43 44 43 41 42 42 43 43 45 46 47 56 65 66 64 62 58 51 49 47 45 43 42 41 39 40 42 44 40 37 31 32 36 40 44 48 51 55
78 68 56 58 52 51 56 58 57 61 66 71 77 76 85 80 82 71 93 96 95 87 73 85 87 93 89 nan nan 28 32 38 41 45 45 44 48 50 44 43 43 42 41 43 48 50 44 46 48 50 48 49 50 48 48 50 53 55 59 67 67 64 59 52 44 45 45 48 48 47 52 57 55 43 32 36 41 36 39 41 42 43 41 44 45
81 76 61 65 60 53 56 55 58 61 67 67 69 70 75 80 93 92 79 83 87 86 89 84 88 89 96 nan nan 29 36 40 43 44 42 44 52 52 48 47 49 47 47 48 50 53 51 52 51 54 56 55 57 56 54 55 58 60 61 62 61 61 56 51 47 53 53 53 57 52 49 51 45 50 43 42 43 43 41 37 36 38 38 40 38
89 83 74 69 66 59 58 57 59 64 70 72 71 78 76 74 83 93 79 78 83 80 80 76 73 82 78 nan nan 31 38 40 47 45 44 46 52 53 51 52 52 55 52 55 56 55 59 58 53 56 60 62 62 62 60 61 63 64 65 66 66 63 61 57 54 55 55 49 46 41 37 40 43 40 37 40 41 39 35 31 31 32 33 33 31
87 80 70 69 65 64 57 63 64 68 72 77 76 76 77 81 77 81 81 74 65 61 57 61 68 71 68 nan nan 28 39 50 49 47 51 48 49 55 57 56 56 55 51 53 54 55 56 60 62 64 65 66 66 65 65 64 65 66 67 66 65 66 64 64 61 54 52 51 48 44 42 42 38 37 39 39 35 33 32 28 29 27 24 21 19
79 76 69 67 63 65 61 65 68 69 68 66 70 70 68 75 75 68 70 78 80 68 58 52 52 57 61 nan nan nan 43 49 53 56 59 55 56 63 60 60 57 56 52 50 47 50 49 51 54 55 61 68 70 73 72 71 72 71 70 68 67 65 62 59 57 56 54 54 51 47 44 40 39 38 37 35 35 30 27 24 20 21 19 15 7
73 66 58 65 62 67 66 68 68 67 63 61 63 65 70 67 66 69 58 63 77 78 62 39 nan nan nan nan nan 56 44 50 53 57 61 59 59 60 67 58 55 52 50 44 44 45 44 44 44 43 49 57 71 76 74 76 75 75 74 73 68 64 63 61 57 52 45 46 42 36 32 23 25 24 22 17 16 16 14 14 17 10 5 354 350
61 60 53 57 58 62 62 59 64 67 74 76 75 76 76 75 66 70 71 52 60 61 54 40 52 nan nan nan nan nan 54 51 50 64 66 62 53 59 67 58 52 46 43 39 41 41 43 43 40 35 36 40 50 70 76 71 74 68 70 70 65 58 54 47 45 38 33 33 28 22 16 12 16 15 13 10 13 10 8 7 1 357 352 349 339
57 54 50 52 52 50 56 58 59 66 71 72 75 80 74 60 55 50 60 64 55 53 45 39 nan 41 nan nan nan nan 80 nan nan 52 nan 63 54 47 44 43 44 38 33 32 33 35 40 40 36 32 29 27 30 40 54 50 51 56 57 67 66 54 38 30 24 17 11 4 5 2 357 6 6 3 7 8 3 1 4 5 4 1 0 358 360
55 56 55 49 45 46 51 53 56 64 57 59 71 76 72 66 59 58 48 49 51 54 42 42 36 nan nan nan nan nan nan nan nan nan nan nan 41 39 35 29 31 31 25 30 28 26 37 37 33 29 27 25 22 22 25 28 39 41 38 27 11 40 26 14 4 356 356 354 354 355 355 356 355 359 359 1 9 12 13 16 11 8 10 13 9
56 52 49 47 44 46 43 48 50 60 63 62 68 71 68 63 54 53 49 39 41 46 51 41 46 nan nan nan nan nan nan nan nan nan nan nan nan nan 33 23 23 23 23 34 28 23 30 34 28 28 27 23 22 19 15 16 24 23 19 17 360 10 4 357 351 351 349 350 352 351 352 352 355 359 1 6 12 15 14 15 17 18 17 16 14
63 54 47 46 42 41 41 39 50 53 59 63 65 72 71 66 60 49 50 47 33 33 50 50 45 47 nan nan nan nan nan nan nan nan nan nan nan nan nan 26 20 21 27 28 27 28 25 26 20 24 22 21 20 18 17 14 14 4 354 8 358 357 352 357 351 350 353 352 352 353 354 357 359 1 7 15 16 17 18 19 nan nan nan 19 nan
66 56 48 41 41 39 34 31 37 44 53 58 59 56 56 56 53 47 50 47 38 38 44 52 55 61 51 55 56 57 nan nan nan nan nan nan nan nan nan nan 23 22 27 nan 23 24 25 18 19 21 17 16 15 16 17 14 9 2 0 5 358 358 351 349 355 355 357 356 356 358 360 1 3 9 15 20 20 nan nan nan nan nan nan nan nan
63 58 46 37 35 40 34 28 29 33 33 40 45 48 44 51 42 38 46 47 41 41 49 49 35 58 59 nan 61 57 nan nan nan nan nan nan nan nan nan nan nan nan nan nan 20 21 17 20 24 22 17 15 14 12 16 15 10 5 6 3 3 3 358 356 359 360 0 1 2 2 2 2 nan nan nan 21 nan nan nan nan nan nan nan nan 22
72 51 43 32 30 36 34 29 28 29 28 34 41 35 30 30 33 31 34 44 43 49 41 46 44 nan nan nan nan nan nan 62 48 nan nan nan nan nan nan nan nan nan nan nan nan nan 22 24 29 23 18 19 16 15 17 nan nan 9 12 4 5 3 2 1 1 3 3 4 4 4 nan nan nan nan nan nan 20 nan nan nan nan 21 21 22 20
75 57 37 28 25 30 31 27 28 26 26 29 31 34 30 24 22 21 26 30 42 42 42 43 nan nan nan nan nan nan nan nan nan nan nan nan nan nan nan nan nan nan nan nan nan nan nan nan 29 25 24 23 21 17 nan nan nan nan 15 6 5 3 1 1 2 5 5 6 6 5 4 6 9 12 15 17 18 17 18 20 20 21 20 20 20
47 45 34 22 19 24 28 29 28 27 26 26 27 29 26 20 21 15 14 14 20 35 45 44 38 36 nan nan nan nan nan nan nan nan nan nan nan nan nan nan nan nan nan nan nan nan nan nan nan nan nan 25 21 nan nan nan nan nan 15 7 4 3 3 2 3 8 7 8 8 8 8 9 11 13 13 14 14 15 16 17 18 18 18 17 17
35 29 33 22 13 21 26 27 28 26 28 28 29 29 24 16 16 12 11 11 5 12 23 39 40 35 nan nan nan nan nan nan nan nan nan nan nan nan nan nan nan nan nan nan nan nan nan nan nan nan nan nan nan nan nan nan nan nan 12 10 5 4 5 4 5 8 9 8 10 11 12 12 12 12 11 11 11 12 14 16 16 16 15 14 14
36 28 30 18 12 15 20 23 27 26 23 24 31 30 24 15 14 11 4 4 5 2 8 25 27 26 nan nan nan nan nan nan nan nan nan nan nan nan nan nan nan nan nan nan nan nan nan nan nan nan nan nan nan nan nan nan nan nan 12 10 8 5 5 6 7 9 11 12 13 15 15 13 12 9 5 2 0 359 2 6 9 10 12 13 12
20 26 18 11 12 15 14 17 18 17 16 17 22 28 23 20 14 10 6 4 357 359 3 9 15 27 nan nan nan nan nan nan nan nan 21 nan nan nan nan nan nan nan nan nan nan nan nan nan nan nan nan nan nan nan nan nan nan nan 12 nan 10 9 8 9 11 14 16 18 19 20 19 15 10 8 5 2 359 1 1 2 4 6 7 7 6
20 17 349 1 8 1 5 4 3 6 4 5 12 16 20 21 18 16 12 5 2 359 0 357 4 13 19 nan nan nan nan nan nan nan nan nan nan nan nan nan nan nan nan nan nan nan nan nan nan nan nan nan nan nan nan nan nan nan 17 nan nan nan nan nan 16 19 nan nan nan 23 23 20 15 12 8 5 3 1 360 358 359 1 0 360 0
350 301 345 353 354 356 354 357 350 349 351 352 352 358 4 10 13 13 16 11 8 9 7 359 2 1 6 nan nan nan nan nan nan nan nan nan nan nan nan nan nan nan nan nan nan nan nan nan nan nan nan nan nan nan nan nan nan 21 20 16 nan nan nan nan nan nan nan nan nan nan nan nan 20 16 13 9 7 3 359 358 358 359 358 357 357
274 304 337 349 351 347 349 350 344 341 339 340 339 339 340 350 356 1 8 8 8 13 12 8 7 358 357 nan nan nan nan nan nan nan nan nan nan nan nan nan nan nan nan nan nan nan nan nan nan nan nan nan nan nan nan nan nan 17 18 18 nan nan nan nan nan nan nan nan nan nan nan nan nan 19 15 12 9 7 3 0 360 359 358 356 355
288 304 331 353 351 349 345 344 343 336 337 334 332 332 327 331 338 345 352 351 0 6 10 11 13 3 358 357 357 nan nan nan 0 353 nan nan nan nan nan nan nan nan nan nan nan nan nan nan nan nan nan nan nan nan nan nan 21 16 15 15 nan nan nan nan nan nan nan nan nan nan nan nan nan 21 17 14 10 8 6 4 2 1 358 356 355
284 312 337 354 350 346 338 339 334 335 329 329 327 326 325 324 324 331 333 338 347 356 1 2 11 6 7 5 2 4 nan nan nan 354 348 nan nan nan nan nan nan nan nan nan nan nan nan nan nan nan nan nan nan nan 22 23 21 16 12 12 nan nan nan nan nan nan nan nan nan nan nan nan nan nan 19 17 14 12 10 6 4 2 358 355 354
320 336 345 351 349 343 336 333 330 328 326 325 323 323 321 323 321 323 327 331 338 346 349 352 355 2 8 11 9 8 2 nan 352 351 352 347 nan 353 nan nan nan nan nan nan nan nan nan nan nan nan nan nan nan nan nan 17 16 16 9 10 12 14 14 nan nan nan nan nan nan nan nan nan nan nan nan 16 13 10 7 5 4 2 358 353 352
335 336 339 346 341 338 331 325 326 324 324 325 320 319 320 324 322 325 322 327 336 339 337 344 348 352 2 9 12 11 2 359 nan 352 351 349 343 350 351 351 nan nan nan nan nan nan nan 10 10 15 nan nan 5 nan 8 8 5 6 6 5 5 5 6 7 8 nan nan nan nan nan nan nan nan nan nan nan 8 4 2 2 2 1 359 355 352
348 347 337 324 322 326 325 325 323 323 323 326 322 317 321 324 326 319 323 328 334 338 333 340 346 347 352 1 8 10 2 5 0 357 352 348 344 346 349 349 351 350 nan 348 nan 4 20 5 7 3 359 353 4 nan 1 0 2 354 358 358 356 nan nan 0 1 3 9 nan nan nan nan nan nan nan nan nan nan nan 1 1 0 359 358 357 354
347 340 338 332 325 324 326 326 324 322 323 323 319 318 321 324 326 325 326 330 335 339 340 346 348 347 349 353 0 1 357 1 5 3 353 351 346 346 349 345 347 347 346 350 346 359 6 10 357 359 357 352 357 nan nan nan 355 351 353 354 353 352 354 355 355 355 1 5 6 5 nan nan nan nan nan nan nan nan nan nan nan nan nan nan nan
342 337 334 336 332 333 330 323 323 325 323 321 319 319 321 321 323 328 328 332 337 341 345 349 351 349 352 350 355 355 355 359 2 360 355 349 348 347 345 342 341 345 343 343 349 351 352 358 353 355 351 348 356 nan nan 348 348 348 351 351 348 350 350 349 350 350 353 358 nan nan nan nan nan nan nan nan nan nan nan nan nan nan nan nan nan
341 325 326 329 339 338 335 334 331 330 330 324 322 320 317 317 323 327 330 332 338 344 348 351 351 355 355 355 356 352 351 355 354 353 350 351 349 344 343 338 339 340 336 339 345 344 346 352 350 341 341 344 345 345 341 344 345 345 344 348 347 348 347 345 343 346 350 354 355 nan nan nan 354 nan nan nan nan nan nan nan nan nan nan nan nan
341 335 344 336 337 342 343 343 338 335 329 326 327 327 327 325 325 329 331 333 338 343 347 351 354 356 358 359 355 351 350 351 350 346 346 351 347 346 343 339 338 334 337 337 338 344 345 349 343 344 nan 339 337 337 335 338 339 339 340 342 338 339 341 341 340 339 338 338 339 342 nan 348 350 352 351 nan nan nan nan nan nan nan nan nan nan
2 355 353 355 343 341 346 342 341 338 334 331 332 334 335 335 338 340 340 339 339 337 342 350 355 356 358 354 350 348 351 352 349 344 344 345 345 351 347 343 337 335 338 337 336 342 343 342 339 337 337 335 334 336 330 330 334 334 336 337 340 337 335 338 339 335 334 336 339 343 341 341 343 342 nan nan nan nan nan nan nan nan nan nan nan
24 12 0 0 1 350 345 341 346 338 335 338 345 351 351 352 352 356 358 353 349 345 345 349 352 355 355 352 349 348 353 353 352 349 341 343 341 346 344 339 339 339 341 337 336 341 341 339 340 335 329 333 329 324 318 319 327 329 333 335 340 335 336 334 335 334 332 332 334 333 334 336 337 338 338 338 340 nan nan nan nan nan nan nan nan
29 13 9 8 7 2 355 351 353 347 348 355 356 3 9 14 14 17 18 18 13 11 8 5 3 4 1 1 1 1 2 6 8 2 354 348 342 348 346 342 347 347 345 340 341 340 340 340 341 328 325 328 329 324 324 325 330 337 328 328 333 329 328 329 331 329 329 330 332 330 331 330 332 333 nan nan nan nan nan nan nan nan nan nan nan
17 2 10 15 9 6 4 2 360 359 9 11 18 20 19 20 24 28 31 35 39 43 44 43 42 35 31 26 25 28 24 21 19 18 15 9 6 359 353 349 352 349 349 348 347 344 341 344 344 332 331 336 328 323 325 327 322 317 318 326 334 327 318 325 324 325 326 327 328 329 329 326 328 330 327 328 nan nan nan nan nan nan nan nan nan
13 1 2 15 11 4 8 8 11 16 24 28 25 22 25 26 24 30 35 42 46 52 57 58 57 52 48 41 38 32 28 24 21 19 15 14 11 11 8 1 354 348 346 349 351 345 340 343 340 331 335 339 329 318 321 320 313 320 325 324 328 320 323 327 331 319 322 326 327 326 326 323 324 328 327 326 327 327 nan nan nan nan nan nan nan
0 334 3 13 9 3 7 16 22 29 37 34 25 23 25 27 26 31 39 46 47 51 54 56 57 54 48 41 33 24 14 12 10 7 8 9 7 6 7 4 359 356 352 349 350 343 337 337 337 336 334 335 328 317 320 316 318 318 323 323 324 323 324 328 329 327 321 324 326 325 327 321 322 326 325 325 325 325 nan nan nan nan nan nan nan
256 319 9 351 9 15 18 17 29 37 44 30 21 19 20 23 27 31 44 44 43 45 45 45 43 39 35 29 23 11 6 8 1 355 350 353 358 2 2 2 360 356 357 1 358 346 332 334 336 338 334 329 325 326 321 320 318 323 322 323 323 323 326 330 332 328 322 323 322 324 327 322 320 324 325 323 323 nan nan nan nan nan nan nan nan
239 36 325 352 3 29 38 27 34 43 40 24 12 13 14 17 20 20 39 37 37 37 32 28 23 21 18 14 9 4 354 347 344 344 342 341 338 340 344 344 344 351 356 0 358 353 341 333 334 342 339 326 331 330 321 316 319 324 321 325 323 324 327 333 333 331 322 319 323 320 323 322 321 322 326 324 nan nan nan nan nan nan nan nan nan
250 233 262 315 342 16 37 39 52 47 35 17 3 6 7 8 12 9 28 32 35 30 24 16 13 11 7 2 0 356 345 338 333 332 331 331 330 331 335 338 340 341 343 345 340 334 333 333 335 341 340 331 334 334 321 318 325 323 321 324 324 325 328 326 321 319 318 321 320 316 327 322 318 323 327 nan nan nan nan nan nan nan nan nan nan
218 215 210 220 285 344 8 21 48 55 31 7 357 357 357 356 353 348 5 23 32 28 16 5 1 358 354 350 347 344 338 333 332 333 328 321 321 328 332 333 332 334 340 340 338 336 335 332 333 337 335 333 333 332 326 321 320 319 314 313 308 308 313 319 326 321 321 317 318 318 320 318 316 323 325 nan nan nan nan nan nan nan nan nan nan
227 227 222 230 228 226 234 298 31 47 26 348 345 347 345 341 324 329 339 350 5 10 4 349 344 345 340 337 335 331 328 325 323 323 325 322 319 324 326 329 327 330 338 326 328 336 338 340 342 343 344 341 337 337 333 331 326 318 313 314 316 311 315 322 323 318 319 312 317 320 317 314 313 318 318 315 nan nan nan nan nan nan nan nan nan
228 223 225 222 222 223 227 210 202 187 222 290 322 330 330 325 324 323 322 327 340 343 343 337 330 329 331 340 334 327 326 321 321 321 319 314 315 320 320 322 327 333 335 315 310 317 330 334 339 339 339 340 337 333 332 331 330 321 318 325 319 313 319 322 321 316 310 311 318 315 311 316 307 309 310 307 309 nan nan nan nan nan nan nan nan
225 227 231 231 230 233 233 220 213 202 215 261 304 318 323 322 321 310 309 312 323 327 323 324 320 318 317 320 330 329 325 324 325 321 318 312 312 314 315 317 328 335 326 302 311 314 311 314 319 322 325 331 326 323 325 329 329 327 325 326 316 315 319 320 317 308 308 316 312 308 312 307 302 305 306 303 308 nan nan nan nan nan nan nan nan